Location: *
(43.9900°N, 3.4811°E)
Time: 01:31:38
(UTC+00:00)

Cosmos 1666 - Pass Details

Date: 25 August 2019
Orbit: 499 x 521 km, 82.5° (Epoch: 23 October)

Event Time Altitude Azimuth Distance (km) Brightness Sun altitude
Exits shadow 21:15:56 35° 262° (W) 846 4.0 -25.4°
Maximum altitude 21:16:30 37° 283° (WNW) 810 4.0 -25.5°
Drops below altitude 10° 21:20:05 10° 352° (N) 1,747 6.1 -25.9°
Sets 21:22:20 0° 1° (N) 2,635 7.0 -26.2°
